User: anonymous   Login
Location: Unspecified
(0.0000°N, 0.0000°E)
Time: 19:29:39
(UTC+00:00)
Language:

DELFI C3 - Orbit

View from above orbital plane
View from above orbital plane
View from above satellite
View from above satellite

Ground track
Ground track

The orbit data is extracted from the following two-line orbital elements,

1 32789U 08021G   18169.37429989  .00001400  00000-0  99916-4 0  9999
2 32789  97.5116 224.1542 0010925 296.9040  63.1070 15.06088099551966
Epoch (UTC): 18 June 2018 08:58:59
Eccentricity: 0.0010925
inclination: 97.5116°
perigee height: 540 km
apogee height: 556 km
right ascension of ascending node: 224.1542°
argument of perigee: 296.9040°
revolutions per day: 15.06088099
mean anomaly at epoch: 63.1070°
orbit number at epoch: 55196

The dashed part of the orbit path shows where the satellite is in the earth's shadow,  

DLR